Soldotna, AK

5:12 PM AKDT on September 25, 2016 (GMT -0800)
Soldotna

Weather History for PASX - April, 2014

Change the Weather History Date:

Monday, April 21, 2014

  Actual Average Record
Temperature  
Mean Temperature 40 °F -  
Max Temperature 55 °F 44 °F 57 °F (2016)
Min Temperature 26 °F 28 °F 5 °F (1972)
Degree Days  
Heating Degree Days 24    
Moisture  
Dew Point 28 °F    
Average Humidity 58    
Maximum Humidity 86    
Minimum Humidity 36    
Precipitation  
Precipitation 0.00 in - - ()
Sea Level Pressure  
Sea Level Pressure 29.93 in    
Wind  
Wind Speed 4 mph (NNE)    
Max Wind Speed 12 mph    
Max Gust Speed 17 mph    
Visibility 10 miles    
Events      
Averages and records for this station are not official NWS values.
T = Trace of Precipitation, MM = Missing Value Source: NWS Daily Summary

Daily Weather History Graph

Daily Weather History Graph

Search for Another Location

Airport or City:

Trip Planner

Search our weather history database for the weather conditions in past years. The results will help you decide how hot, cold, wet, or windy it might be!

Date:

Astronomy

Apr. 21, 2014 Rise Set
Actual Time 6:27 AM AKDT 9:39 PM AKDT
Civil Twilight 5:38 AM AKDT 10:29 PM AKDT
Nautical Twilight 4:28 AM AKDT 11:40 PM AKDT
Astronomical Twilight 2:35 AM AKDT 1:30 AM AKDT
Moon 3:39 AM AKDT (4/21) 11:46 AM AKDT (4/21)
Length of Visible Light 16h 51m
Length of Day
15h 12m
Waning Gibbous, 56% of the Moon is Illuminated
Apr 21
Waning Gibbous
Apr 21
Last Quarter
Apr 28
New
May 6
First Quarter
May 14
Full

Hourly Weather History & Observations

Time (AKDT) Temp. Windchill Dew Point Humidity Pressure Visibility Wind Dir Wind Speed Gust Speed Precip Events Conditions
12:16 AM 41.0 °F 35.8 °F 28.4 °F 61% 29.87 in 10.0 mi East 8.1 mph - N/A   Clear
12:36 AM 39.2 °F 35.9 °F 28.4 °F 65% 29.88 in 10.0 mi ESE 4.6 mph - N/A   Clear
12:56 AM 39.2 °F - 28.4 °F 65% 29.90 in 10.0 mi Calm Calm - N/A   Clear
1:16 AM 37.4 °F 33.8 °F 28.4 °F 70% 29.91 in 10.0 mi SSE 4.6 mph - N/A   Clear
1:36 AM 37.4 °F - 26.6 °F 65% 29.91 in 10.0 mi Calm Calm - N/A   Clear
1:56 AM 35.6 °F - 28.4 °F 75% 29.92 in 10.0 mi Calm Calm - N/A   Clear
2:16 AM 33.8 °F - 26.6 °F 75% 29.92 in 10.0 mi Calm Calm - N/A   Clear
2:36 AM 30.2 °F - 24.8 °F 80% 29.93 in 10.0 mi Calm Calm - N/A   Clear
2:56 AM 28.4 °F - 23.0 °F 80% 29.93 in 10.0 mi Calm Calm - N/A   Clear
3:16 AM 30.2 °F - 24.8 °F 80% 29.93 in 10.0 mi Calm Calm - N/A   Clear
3:36 AM 30.2 °F - 24.8 °F 80% 29.93 in 10.0 mi Calm Calm - N/A   Clear
3:56 AM 28.4 °F - 23.0 °F 80% 29.93 in 10.0 mi Calm Calm - N/A   Clear
4:16 AM 28.4 °F - 21.2 °F 74% 29.93 in 10.0 mi Calm Calm - N/A   Clear
4:36 AM 26.6 °F 22.6 °F 21.2 °F 80% 29.93 in 10.0 mi East 3.5 mph - N/A   Clear
4:56 AM 28.4 °F 24.6 °F 24.8 °F 86% 29.94 in 10.0 mi East 3.5 mph - N/A   Clear
5:16 AM 28.4 °F 24.6 °F 24.8 °F 86% 29.94 in 10.0 mi ENE 3.5 mph - N/A   Clear
5:36 AM 26.6 °F 22.6 °F 21.2 °F 80% 29.94 in 10.0 mi East 3.5 mph - N/A   Clear
5:56 AM 28.4 °F 23.3 °F 23.0 °F 80% 29.94 in 10.0 mi ENE 4.6 mph - N/A   Clear
6:16 AM 28.4 °F 23.3 °F 23.0 °F 80% 29.94 in 10.0 mi ENE 4.6 mph - N/A   Clear
6:36 AM 26.6 °F 22.6 °F 21.2 °F 80% 29.94 in 10.0 mi ESE 3.5 mph - N/A   Clear
6:56 AM 28.4 °F 21.2 °F 24.8 °F 86% 29.94 in 10.0 mi East 6.9 mph - N/A   Clear
7:16 AM 28.4 °F 23.3 °F 23.0 °F 80% 29.94 in 10.0 mi East 4.6 mph - N/A   Clear
7:36 AM 28.4 °F 23.3 °F 23.0 °F 80% 29.94 in 10.0 mi East 4.6 mph - N/A   Clear
7:56 AM 30.2 °F - 24.8 °F 80% 29.95 in 10.0 mi Calm Calm - N/A   Clear
8:16 AM 33.8 °F 28.6 °F 24.8 °F 70% 29.94 in 10.0 mi East 5.8 mph - N/A   Clear
8:36 AM 35.6 °F 30.7 °F 26.6 °F 70% 29.95 in 10.0 mi East 5.8 mph - N/A   Clear
8:56 AM 37.4 °F 34.9 °F 26.6 °F 65% 29.95 in 10.0 mi ENE 3.5 mph - N/A   Clear
9:16 AM 39.2 °F - 28.4 °F 65% 29.95 in 10.0 mi Calm Calm - N/A   Clear
9:36 AM 42.8 °F 41.1 °F 28.4 °F 57% 29.94 in 10.0 mi East 3.5 mph - N/A   Clear
9:56 AM 44.6 °F - 28.4 °F 53% 29.94 in 10.0 mi Calm Calm - N/A   Clear
10:16 AM 44.6 °F - 30.2 °F 57% 29.94 in 10.0 mi Calm Calm - N/A   Clear
10:36 AM 46.4 °F - 30.2 °F 53% 29.94 in 10.0 mi Calm Calm - N/A   Clear
10:56 AM 48.2 °F - 28.4 °F 46% 29.94 in 10.0 mi ENE 3.5 mph - N/A   Clear
11:16 AM 48.2 °F - 28.4 °F 46% 29.94 in 10.0 mi Calm Calm - N/A   Clear
11:36 AM 50.0 °F - 28.4 °F 43% 29.94 in 10.0 mi NNE 4.6 mph - N/A   Clear
11:56 AM 51.8 °F - 30.2 °F 44% 29.94 in 10.0 mi Calm Calm - N/A   Clear
12:16 PM 51.8 °F - 28.4 °F 41% 29.93 in 10.0 mi Calm Calm - N/A   Clear
12:36 PM 51.8 °F - 30.2 °F 44% 29.93 in 10.0 mi ENE 4.6 mph - N/A   Clear
12:56 PM 51.8 °F - 28.4 °F 41% 29.93 in 10.0 mi NNE 5.8 mph - N/A   Clear
1:16 PM 53.6 °F - 32.0 °F 44% 29.93 in 10.0 mi West 6.9 mph - N/A   Clear
1:36 PM 53.6 °F - 30.2 °F 41% 29.93 in 10.0 mi West 8.1 mph - N/A   Clear
1:56 PM 53.6 °F - 32.0 °F 44% 29.93 in 10.0 mi West 8.1 mph - N/A   Clear
2:16 PM 53.6 °F - 30.2 °F 41% 29.93 in 10.0 mi WNW 11.5 mph - N/A   Clear
2:36 PM 53.6 °F - 30.2 °F 41% 29.93 in 10.0 mi WNW 11.5 mph - N/A   Clear
2:56 PM 55.4 °F - 32.0 °F 41% 29.92 in 10.0 mi West 10.4 mph - N/A   Scattered Clouds
3:16 PM 55.4 °F - 30.2 °F 38% 29.92 in 10.0 mi WNW 11.5 mph 16.1 mph N/A   Partly Cloudy
3:36 PM 55.4 °F - 30.2 °F 38% 29.92 in 10.0 mi WNW 8.1 mph 17.3 mph N/A   Scattered Clouds
3:56 PM 55.4 °F - 30.2 °F 38% 29.92 in 10.0 mi WNW 3.5 mph - N/A   Mostly Cloudy
4:16 PM 55.4 °F - 30.2 °F 38% 29.92 in 10.0 mi NNW 6.9 mph - N/A   Overcast
4:36 PM 55.4 °F - 30.2 °F 38% 29.91 in 10.0 mi North 5.8 mph - N/A   Scattered Clouds
4:56 PM 55.4 °F - 28.4 °F 36% 29.91 in 10.0 mi North 4.6 mph - N/A   Mostly Cloudy
5:16 PM 55.4 °F - 30.2 °F 38% 29.91 in 10.0 mi NNW 3.5 mph - N/A   Mostly Cloudy
5:36 PM 55.4 °F - 30.2 °F 38% 29.91 in 10.0 mi North 8.1 mph - N/A   Overcast
5:56 PM 53.6 °F - 30.2 °F 41% 29.91 in 10.0 mi NNE 4.6 mph - N/A   Scattered Clouds
6:16 PM 55.4 °F - 30.2 °F 38% 29.91 in 10.0 mi NNW 6.9 mph - N/A   Scattered Clouds
6:36 PM 55.4 °F - 28.4 °F 36% 29.91 in 10.0 mi North 8.1 mph - N/A   Overcast
6:56 PM 53.6 °F - 28.4 °F 38% 29.91 in 10.0 mi NNE 6.9 mph - N/A   Overcast
7:16 PM 53.6 °F - 30.2 °F 41% 29.91 in 10.0 mi NNE 5.8 mph - N/A   Overcast
7:36 PM 53.6 °F - 28.4 °F 38% 29.91 in 10.0 mi NNW 4.6 mph - N/A   Overcast
7:56 PM 46.4 °F 41.1 °F 30.2 °F 53% 29.92 in 10.0 mi West 11.5 mph - N/A   Overcast
8:16 PM 44.6 °F 38.8 °F 30.2 °F 57% 29.92 in 10.0 mi West 11.5 mph - N/A   Overcast
8:36 PM 44.6 °F 40.2 °F 30.2 °F 57% 29.92 in 10.0 mi West 8.1 mph - N/A   Overcast
8:56 PM 44.6 °F 40.7 °F 30.2 °F 57% 29.93 in 10.0 mi WNW 6.9 mph - N/A   Overcast
9:16 PM 44.6 °F 41.4 °F 30.2 °F 57% 29.93 in 10.0 mi West 5.8 mph - N/A   Overcast
9:36 PM 44.6 °F 42.2 °F 28.4 °F 53% 29.93 in 10.0 mi West 4.6 mph - N/A   Overcast
9:56 PM 44.6 °F - 30.2 °F 57% 29.93 in 10.0 mi Calm Calm - N/A   Overcast
10:16 PM 44.6 °F - 30.2 °F 57% 29.93 in 10.0 mi Calm Calm - N/A   Overcast
10:36 PM 42.8 °F - 30.2 °F 61% 29.93 in 10.0 mi Calm Calm - N/A   Overcast
10:56 PM 41.0 °F - 28.4 °F 61% 29.93 in 10.0 mi Calm Calm - N/A   Mostly Cloudy
11:16 PM 39.2 °F - 28.4 °F 65% 29.93 in 10.0 mi Calm Calm - N/A   Partly Cloudy
11:36 PM 35.6 °F - 26.6 °F 70% 29.93 in 10.0 mi Calm Calm - N/A   Clear
11:56 PM 33.8 °F - 26.6 °F 75% 29.93 in 10.0 mi Calm Calm - N/A   Partly Cloudy